| time (UTC) | temp F | wind direction | speed MPH | gust MPH | rain 1hr in | rain 24hr in | rain mn in | humidity % | barometer mb |
| 20260903041012 | 79 | 181 | 0.0 | 0.0 | 0.00 | 0.00 | 0.00 | 86 | 1017.7 |
| 20260903040511 | 79 | 181 | 0.0 | 0.0 | 0.00 | 0.00 | 0.00 | 85 | 1017.7 |
| 20260903040010 | 79 | 181 | 0.0 | 0.0 | 0.00 | 0.00 | 0.00 | 85 | 1017.8 |
| 20260903035503 | 79 | 181 | 0.0 | 0.0 | 0.00 | 0.00 | 0.00 | 85 | 1017.8 |
| 20260903035008 | 79 | 181 | 0.0 | 0.0 | 0.00 | 0.00 | 0.00 | 85 | 1017.6 |
| 20260903034526 | 79 | 181 | 0.0 | 0.0 | 0.00 | 0.00 | 0.00 | 83 | 1017.8 |
| 20260903034004 | 79 | 181 | 0.0 | 0.0 | 0.00 | 0.00 | 0.00 | 83 | 1017.9 |
| 20260903033508 | 79 | 181 | 0.0 | 0.0 | 0.00 | 0.00 | 0.00 | 83 | 1018.0 |
| 20260903033029 | 80 | 181 | 0.0 | 0.0 | 0.00 | 0.00 | 0.00 | 83 | 1017.9 |
| 20260903032515 | 80 | 181 | 0.0 | 0.0 | 0.00 | 0.00 | 0.00 | 82 | 1017.8 |
| 20260903032005 | 80 | 181 | 0.0 | 0.0 | 0.00 | 0.00 | 0.00 | 82 | 1018.0 |
| 20260903031527 | 80 | 181 | 0.0 | 0.0 | 0.00 | 0.00 | 0.00 | 82 | 1018.0 |
| 20260903031013 | 80 | 181 | 0.0 | 0.0 | 0.00 | 0.00 | 0.00 | 82 | 1018.1 |
| 20260903030508 | 80 | 181 | 0.0 | 0.0 | 0.00 | 0.00 | 0.00 | 80 | 1017.8 |
| 20260903030021 | 80 | 181 | 0.0 | 0.0 | 0.00 | 0.00 | 0.00 | 80 | 1017.8 |
| 20260903025509 | 80 | 181 | 0.0 | 0.0 | 0.00 | 0.00 | 0.00 | 81 | 1018.0 |
| 20260903025014 | 80 | 181 | 0.0 | 0.0 | 0.00 | 0.00 | 0.00 | 81 | 1018.0 |
| 20260903024511 | 81 | 181 | 0.0 | 0.0 | 0.00 | 0.00 | 0.00 | 80 | 1017.9 |
| 20260903024006 | 81 | 181 | 0.0 | 0.0 | 0.00 | 0.00 | 0.00 | 80 | 1017.6 |
| 20260903023516 | 81 | 181 | 0.0 | 0.0 | 0.00 | 0.00 | 0.00 | 80 | 1017.7 |
| 20260903023008 | 81 | 181 | 0.0 | 0.0 | 0.00 | 0.00 | 0.00 | 79 | 1017.8 |
| 20260903022508 | 81 | 181 | 0.0 | 0.0 | 0.00 | 0.00 | 0.00 | 78 | 1017.9 |
| 20260903022015 | 81 | 181 | 0.0 | 0.0 | 0.00 | 0.00 | 0.00 | 78 | 1017.7 |
| 20260903021539 | 81 | 181 | 0.0 | 0.0 | 0.00 | 0.00 | 0.00 | 77 | 1017.6 |
| 20260903021003 | 82 | 181 | 0.0 | 0.0 | 0.00 | 0.00 | 0.00 | 77 | 1017.7 |
| 20260903020510 | 82 | 181 | 0.0 | 0.0 | 0.00 | 0.00 | 0.00 | 77 | 1017.8 |
| 20260903020034 | 82 | 181 | 0.0 | 0.0 | 0.00 | 0.00 | 0.00 | 77 | 1017.8 |
| 20260903015505 | 82 | 181 | 0.0 | 0.0 | 0.00 | 0.00 | 0.00 | 77 | 1017.5 |
| 20260903015006 | 82 | 181 | 0.0 | 0.0 | 0.00 | 0.00 | 0.00 | 75 | 1017.6 |
| 20260903014524 | 82 | 181 | 0.0 | 0.0 | 0.00 | 0.00 | 0.00 | 75 | 1017.7 |
| 20260903014015 | 83 | 181 | 0.0 | 0.0 | 0.00 | 0.00 | 0.00 | 75 | 1017.8 |
| 20260903013505 | 83 | 181 | 0.0 | 0.0 | 0.00 | 0.00 | 0.00 | 73 | 1017.5 |
| 20260903013017 | 83 | 181 | 0.0 | 0.0 | 0.00 | 0.00 | 0.00 | 73 | 1017.4 |
| 20260903012511 | 83 | 181 | 0.0 | 0.0 | 0.00 | 0.00 | 0.00 | 74 | 1017.4 |
| 20260903012014 | 83 | 181 | 0.0 | 0.0 | 0.00 | 0.00 | 0.00 | 73 | 1017.5 |
| 20260903011516 | 84 | 181 | 0.0 | 0.0 | 0.00 | 0.00 | 0.00 | 72 | 1017.4 |
| 20260903011008 | 84 | 181 | 0.0 | 0.0 | 0.00 | 0.00 | 0.00 | 72 | 1017.2 |
| 20260903010517 | 84 | 181 | 0.0 | 0.0 | 0.00 | 0.00 | 0.00 | 71 | 1017.1 |
| 20260903010010 | 84 | 181 | 0.0 | 0.0 | 0.00 | 0.00 | 0.00 | 70 | 1017.2 |
| 20260903005506 | 85 | 181 | 0.0 | 0.0 | 0.00 | 0.00 | 0.00 | 70 | 1017.2 |
| 20260903005014 | 85 | 181 | 0.0 | 0.0 | 0.00 | 0.00 | 0.00 | 69 | 1017.1 |
| 20260903004536 | 85 | 181 | 0.0 | 0.0 | 0.00 | 0.00 | 0.00 | 70 | 1017.1 |
| 20260903004008 | 86 | 181 | 0.0 | 0.0 | 0.00 | 0.00 | 0.00 | 68 | 1016.9 |
| 20260903003510 | 86 | 181 | 0.0 | 0.0 | 0.00 | 0.00 | 0.00 | 69 | 1017.2 |
| 20260903003028 | 86 | 181 | 0.0 | 0.0 | 0.00 | 0.00 | 0.00 | 66 | 1017.2 |
| 20260903002507 | 86 | 181 | 0.0 | 0.0 | 0.00 | 0.00 | 0.00 | 66 | 1017.0 |
| 20260903002007 | 87 | 181 | 0.0 | 0.0 | 0.00 | 0.00 | 0.00 | 65 | 1017.0 |
| 20260903001527 | 87 | 181 | 0.0 | 0.0 | 0.00 | 0.00 | 0.00 | 64 | 1017.2 |
| 20260903001012 | 87 | 181 | 0.0 | 0.0 | 0.00 | 0.00 | 0.00 | 64 | 1017.1 |
| 20260903000506 | 88 | 181 | 0.0 | 0.0 | 0.00 | 0.00 | 0.00 | 63 | 1016.8 |
| 20260903000038 | 88 | 181 | 0.0 | 0.0 | 0.00 | 0.00 | 0.00 | 62 | 1016.9 |
| 20260902235514 | 89 | 181 | 0.0 | 0.0 | 0.00 | 0.00 | 0.00 | 61 | 1017.0 |
| 20260902235017 | 89 | 181 | 0.0 | 0.0 | 0.00 | 0.00 | 0.00 | 60 | 1017.0 |
| 20260902234516 | 89 | 181 | 0.0 | 0.0 | 0.00 | 0.00 | 0.00 | 60 | 1016.9 |
| 20260902234009 | 90 | 181 | 0.0 | 0.0 | 0.00 | 0.00 | 0.00 | 59 | 1017.0 |
| 20260902233515 | 90 | 181 | 0.0 | 0.0 | 0.00 | 0.00 | 0.00 | 58 | 1017.1 |
| 20260902233013 | 90 | 181 | 0.0 | 0.0 | 0.00 | 0.00 | 0.00 | 57 | 1016.9 |
| 20260902232507 | 90 | 181 | 0.0 | 0.0 | 0.00 | 0.00 | 0.00 | 57 | 1017.1 |
| 20260902232011 | 91 | 181 | 0.0 | 0.0 | 0.00 | 0.00 | 0.00 | 56 | 1017.0 |
| 20260902231534 | 91 | 181 | 0.0 | 0.0 | 0.00 | 0.00 | 0.00 | 56 | 1017.1 |
| 20260902231008 | 91 | 181 | 0.0 | 0.0 | 0.00 | 0.00 | 0.00 | 56 | 1017.1 |
| 20260902230516 | 91 | 181 | 0.0 | 0.0 | 0.00 | 0.00 | 0.00 | 56 | 1016.9 |
| 20260902230029 | 92 | 181 | 0.0 | 0.0 | 0.00 | 0.00 | 0.00 | 55 | 1017.1 |
| 20260902225504 | 92 | 181 | 0.0 | 0.0 | 0.00 | 0.00 | 0.00 | 53 | 1017.2 |
| 20260902225012 | 93 | 172 | 0.0 | 2.0 | 0.00 | 0.00 | 0.00 | 53 | 1017.2 |
| 20260902224527 | 93 | 84 | 0.0 | 2.0 | 0.00 | 0.00 | 0.00 | 53 | 1017.0 |
| 20260902224015 | 93 | 78 | 1.0 | 2.0 | 0.00 | 0.00 | 0.00 | 53 | 1017.0 |
| 20260902223025 | 93 | 122 | 0.0 | 0.0 | 0.00 | 0.00 | 0.00 | 49 | 1017.2 |
| 20260902222515 | 93 | 122 | 0.0 | 0.0 | 0.00 | 0.00 | 0.00 | 52 | 1017.1 |
| 20260902222006 | 93 | 122 | 0.0 | 1.0 | 0.00 | 0.00 | 0.00 | 50 | 1017.2 |
| 20260902221520 | 93 | 122 | 0.0 | 1.0 | 0.00 | 0.00 | 0.00 | 51 | 1017.2 |
| 20260902221013 | 94 | 122 | 0.0 | 2.0 | 0.00 | 0.00 | 0.00 | 50 | 1017.2 |
| 20260902220504 | 94 | 162 | 0.0 | 2.0 | 0.00 | 0.00 | 0.00 | 48 | 1017.1 |
| 20260902220025 | 94 | 156 | 0.0 | 2.0 | 0.00 | 0.00 | 0.00 | 49 | 1017.2 |
| 20260902215511 | 94 | 143 | 0.0 | 2.0 | 0.00 | 0.00 | 0.00 | 50 | 1017.2 |
| 20260902215003 | 94 | 138 | 0.0 | 1.0 | 0.00 | 0.00 | 0.00 | 50 | 1017.2 |
| 20260902214531 | 94 | 165 | 0.0 | 1.0 | 0.00 | 0.00 | 0.00 | 48 | 1017.2 |
| 20260902214010 | 94 | 248 | 0.0 | 1.0 | 0.00 | 0.00 | 0.00 | 51 | 1017.3 |
| 20260902213514 | 93 | 248 | 0.0 | 1.0 | 0.00 | 0.00 | 0.00 | 49 | 1017.2 |
| 20260902213008 | 94 | 215 | 0.0 | 1.0 | 0.00 | 0.00 | 0.00 | 50 | 1017.4 |
| 20260902212506 | 94 | 217 | 0.0 | 2.0 | 0.00 | 0.00 | 0.00 | 49 | 1017.4 |
| 20260902212013 | 94 | 161 | 0.0 | 2.0 | 0.00 | 0.00 | 0.00 | 49 | 1017.4 |
| 20260902211506 | 94 | 111 | 0.0 | 2.0 | 0.00 | 0.00 | 0.00 | 50 | 1017.5 |
| 20260902211006 | 94 | 101 | 0.0 | 2.0 | 0.00 | 0.00 | 0.00 | 49 | 1017.6 |
| 20260902210511 | 94 | 136 | 0.0 | 2.0 | 0.00 | 0.00 | 0.00 | 50 | 1017.6 |
| 20260902210028 | 94 | 186 | 0.0 | 2.0 | 0.00 | 0.00 | 0.00 | 50 | 1017.5 |
| 20260902205503 | 95 | 116 | 0.0 | 5.0 | 0.00 | 0.00 | 0.00 | 50 | 1017.7 |
| 20260902205008 | 95 | 98 | 2.0 | 5.0 | 0.00 | 0.00 | 0.00 | 49 | 1017.5 |
| 20260902204526 | 96 | 276 | 0.0 | 1.0 | 0.00 | 0.00 | 0.00 | 50 | 1017.7 |
| 20260902204016 | 96 | 276 | 0.0 | 3.0 | 0.00 | 0.00 | 0.00 | 48 | 1017.6 |
| 20260902203504 | 97 | 275 | 0.0 | 3.0 | 0.00 | 0.00 | 0.00 | 46 | 1017.6 |
| 20260902203018 | 97 | 15 | 0.0 | 2.0 | 0.00 | 0.00 | 0.00 | 47 | 1017.8 |
| 20260902202510 | 96 | 80 | 0.0 | 3.0 | 0.00 | 0.00 | 0.00 | 48 | 1017.8 |
| 20260902202004 | 96 | 164 | 1.0 | 3.0 | 0.00 | 0.00 | 0.00 | 48 | 1017.8 |
| 20260902201529 | 96 | 79 | 1.0 | 3.0 | 0.00 | 0.00 | 0.00 | 46 | 1017.9 |
| 20260902201008 | 96 | 55 | 0.0 | 2.0 | 0.00 | 0.00 | 0.00 | 49 | 1018.0 |
| 20260902200514 | 96 | 274 | 0.0 | 2.0 | 0.00 | 0.00 | 0.00 | 49 | 1018.1 |
| 20260902200008 | 97 | 322 | 0.0 | 2.0 | 0.00 | 0.00 | 0.00 | 46 | 1018.2 |
| 20260902195510 | 97 | 204 | 0.0 | 3.0 | 0.00 | 0.00 | 0.00 | 48 | 1018.2 |
| 20260902195010 | 96 | 94 | 0.0 | 3.0 | 0.00 | 0.00 | 0.00 | 47 | 1018.2 |
| 20260902194530 | 96 | 103 | 0.0 | 2.0 | 0.00 | 0.00 | 0.00 | 46 | 1018.3 |
| 20260902194004 | 96 | 109 | 0.0 | 1.0 | 0.00 | 0.00 | 0.00 | 49 | 1018.3 |
| 20260902193508 | 95 | 210 | 0.0 | 1.0 | 0.00 | 0.00 | 0.00 | 51 | 1018.4 |
| 20260902193029 | 95 | 218 | 0.0 | 1.0 | 0.00 | 0.00 | 0.00 | 49 | 1018.4 |
| 20260902192502 | 96 | 208 | 0.0 | 1.0 | 0.00 | 0.00 | 0.00 | 50 | 1018.5 |
| 20260902192005 | 97 | 160 | 0.0 | 2.0 | 0.00 | 0.00 | 0.00 | 49 | 1018.7 |
| 20260902191527 | 97 | 156 | 0.0 | 3.0 | 0.00 | 0.00 | 0.00 | 48 | 1018.8 |
| 20260902191015 | 98 | 261 | 1.0 | 3.0 | 0.00 | 0.00 | 0.00 | 45 | 1018.6 |
| 20260902190506 | 98 | 136 | 0.0 | 2.0 | 0.00 | 0.00 | 0.00 | 48 | 1018.7 |
| 20260902190024 | 98 | 275 | 0.0 | 2.0 | 0.00 | 0.00 | 0.00 | 45 | 1018.6 |
| 20260902185512 | 98 | 203 | 0.0 | 2.0 | 0.00 | 0.00 | 0.00 | 46 | 1018.8 |
| 20260902185006 | 98 | 131 | 0.0 | 2.0 | 0.00 | 0.00 | 0.00 | 48 | 1019.0 |
| 20260902184522 | 97 | 187 | 0.0 | 3.0 | 0.00 | 0.00 | 0.00 | 46 | 1019.0 |
| 20260902184013 | 96 | 103 | 0.0 | 3.0 | 0.00 | 0.00 | 0.00 | 46 | 1019.0 |
| 20260902183516 | 97 | 122 | 0.0 | 3.0 | 0.00 | 0.00 | 0.00 | 48 | 1018.9 |
| 20260902183016 | 96 | 139 | 0.0 | 5.0 | 0.00 | 0.00 | 0.00 | 51 | 1018.9 |
| 20260902182508 | 96 | 114 | 1.0 | 5.0 | 0.00 | 0.00 | 0.00 | 47 | 1019.1 |
| 20260902181530 | 96 | 129 | 0.0 | 2.0 | 0.00 | 0.00 | 0.00 | 49 | 1019.3 |
| 20260902181008 | 96 | 136 | 0.0 | 1.0 | 0.00 | 0.00 | 0.00 | 48 | 1019.3 |
| 20260902180512 | 95 | 276 | 0.0 | 1.0 | 0.00 | 0.00 | 0.00 | 50 | 1019.3 |
| 20260902180033 | 95 | 276 | 0.0 | 3.0 | 0.00 | 0.00 | 0.00 | 51 | 1019.3 |
| 20260902175503 | 95 | 275 | 0.0 | 3.0 | 0.00 | 0.00 | 0.00 | 48 | 1019.5 |
| 20260902175007 | 95 | 280 | 0.0 | 2.0 | 0.00 | 0.00 | 0.00 | 50 | 1019.7 |
| 20260902174536 | 94 | 266 | 0.0 | 1.0 | 0.00 | 0.00 | 0.00 | 52 | 1019.8 |
| 20260902174014 | 94 | 250 | 0.0 | 2.0 | 0.00 | 0.00 | 0.00 | 54 | 1019.7 |
| 20260902173507 | 94 | 250 | 0.0 | 2.0 | 0.00 | 0.00 | 0.00 | 52 | 1019.7 |
| 20260902173037 | 94 | 91 | 0.0 | 2.0 | 0.00 | 0.00 | 0.00 | 52 | 1019.8 |
| 20260902172514 | 94 | 82 | 0.0 | 3.0 | 0.00 | 0.00 | 0.00 | 53 | 1019.9 |
| 20260902172005 | 93 | 96 | 2.0 | 5.0 | 0.00 | 0.00 | 0.00 | 52 | 1020.1 |
| 20260902171517 | 94 | 122 | 2.0 | 5.0 | 0.00 | 0.00 | 0.00 | 51 | 1020.2 |
| 20260902171011 | 94 | 65 | 1.0 | 2.0 | 0.00 | 0.00 | 0.00 | 52 | 1020.3 |
| 20260902170513 | 95 | 292 | 0.0 | 2.0 | 0.00 | 0.00 | 0.00 | 51 | 1020.4 |
| 20260902170014 | 94 | 274 | 0.0 | 2.0 | 0.00 | 0.00 | 0.00 | 50 | 1020.5 |
| 20260902165510 | 94 | 32 | 0.0 | 2.0 | 0.00 | 0.00 | 0.00 | 52 | 1020.6 |
| 20260902165016 | 93 | 233 | 0.0 | 1.0 | 0.00 | 0.00 | 0.00 | 54 | 1020.6 |
| 20260902164531 | 93 | 285 | 0.0 | 4.0 | 0.00 | 0.00 | 0.00 | 52 | 1020.8 |
| 20260902164006 | 92 | 309 | 0.0 | 4.0 | 0.00 | 0.00 | 0.00 | 53 | 1020.8 |
| 20260902163512 | 93 | 300 | 0.0 | 3.0 | 0.00 | 0.00 | 0.00 | 53 | 1020.9 |
| 20260902163029 | 92 | 352 | 0.0 | 3.0 | 0.00 | 0.00 | 0.00 | 54 | 1021.0 |
| 20260902162504 | 92 | 206 | 0.0 | 2.0 | 0.00 | 0.00 | 0.00 | 56 | 1021.0 |
| 20260902162008 | 91 | 105 | 0.0 | 2.0 | 0.00 | 0.00 | 0.00 | 58 | 1021.1 |
| 20260902161531 | 91 | 236 | 0.0 | 4.0 | 0.00 | 0.00 | 0.00 | 60 | 1021.2 |
| 20260902161016 | 91 | 106 | 1.0 | 4.0 | 0.00 | 0.00 | 0.00 | 59 | 1021.2 |
| 20260902160508 | 90 | 263 | 0.0 | 1.0 | 0.00 | 0.00 | 0.00 | 62 | 1021.1 |
| 20260902160039 | 90 | 230 | 0.0 | 2.0 | 0.00 | 0.00 | 0.00 | 60 | 1021.1 |
| 20260902155519 | 90 | 68 | 0.0 | 2.0 | 0.00 | 0.00 | 0.00 | 61 | 1021.1 |
| 20260902155005 | 90 | 76 | 0.0 | 2.0 | 0.00 | 0.00 | 0.00 | 63 | 1021.1 |
| 20260902154539 | 90 | 110 | 0.0 | 2.0 | 0.00 | 0.00 | 0.00 | 62 | 1021.2 |
| 20260902154013 | 89 | 179 | 0.0 | 2.0 | 0.00 | 0.00 | 0.00 | 63 | 1021.3 |
| 20260902153516 | 88 | 131 | 0.0 | 3.0 | 0.00 | 0.00 | 0.00 | 63 | 1021.1 |
| 20260902153033 | 88 | 83 | 0.0 | 3.0 | 0.00 | 0.00 | 0.00 | 63 | 1021.2 |
| 20260902152511 | 88 | 102 | 1.0 | 3.0 | 0.00 | 0.00 | 0.00 | 63 | 1021.3 |
| 20260902152015 | 88 | 303 | 0.0 | 2.0 | 0.00 | 0.00 | 0.00 | 63 | 1021.3 |
| 20260902151533 | 88 | 86 | 0.0 | 2.0 | 0.00 | 0.00 | 0.00 | 63 | 1021.3 |
| 20260902151010 | 87 | 86 | 0.0 | 2.0 | 0.00 | 0.00 | 0.00 | 66 | 1021.2 |
| 20260902150512 | 87 | 94 | 1.0 | 2.0 | 0.00 | 0.00 | 0.00 | 64 | 1021.2 |
| 20260902150030 | 87 | 112 | 0.0 | 2.0 | 0.00 | 0.00 | 0.00 | 65 | 1021.1 |
| 20260902145510 | 87 | 97 | 0.0 | 2.0 | 0.00 | 0.00 | 0.00 | 67 | 1021.0 |
| 20260902145012 | 86 | 96 | 0.0 | 2.0 | 0.00 | 0.00 | 0.00 | 65 | 1021.0 |
| 20260902144530 | 86 | 137 | 0.0 | 2.0 | 0.00 | 0.00 | 0.00 | 66 | 1021.0 |
| 20260902144016 | 86 | 79 | 0.0 | 2.0 | 0.00 | 0.00 | 0.00 | 65 | 1020.9 |
| 20260902143510 | 85 | 82 | 0.0 | 2.0 | 0.00 | 0.00 | 0.00 | 69 | 1021.0 |
| 20260902143029 | 85 | 139 | 0.0 | 1.0 | 0.00 | 0.00 | 0.00 | 70 | 1021.0 |
| 20260902142523 | 85 | 138 | 0.0 | 1.0 | 0.00 | 0.00 | 0.00 | 70 | 1021.0 |
| 20260902142009 | 84 | 124 | 0.0 | 1.0 | 0.00 | 0.00 | 0.00 | 72 | 1021.0 |
| 20260902141523 | 84 | 119 | 0.0 | 2.0 | 0.00 | 0.00 | 0.00 | 74 | 1021.0 |
| 20260902141013 | 84 | 94 | 0.0 | 2.0 | 0.00 | 0.00 | 0.00 | 75 | 1020.9 |
| 20260902140516 | 83 | 94 | 0.0 | 2.0 | 0.00 | 0.00 | 0.00 | 78 | 1020.9 |
| 20260902140019 | 83 | 85 | 0.0 | 2.0 | 0.00 | 0.00 | 0.00 | 77 | 1020.9 |
| 20260902135513 | 82 | 82 | 0.0 | 1.0 | 0.00 | 0.00 | 0.00 | 78 | 1020.9 |
| 20260902135014 | 82 | 127 | 0.0 | 1.0 | 0.00 | 0.00 | 0.00 | 79 | 1020.9 |
| 20260902134512 | 82 | 98 | 0.0 | 1.0 | 0.00 | 0.00 | 0.00 | 78 | 1021.0 |
| 20260902134002 | 81 | 105 | 0.0 | 1.0 | 0.00 | 0.00 | 0.00 | 80 | 1021.0 |
| 20260902133505 | 81 | 126 | 0.0 | 1.0 | 0.00 | 0.00 | 0.00 | 81 | 1021.0 |
| 20260902133007 | 81 | 126 | 0.0 | 1.0 | 0.00 | 0.00 | 0.00 | 82 | 1020.9 |
| 20260902132506 | 80 | 89 | 0.0 | 1.0 | 0.00 | 0.00 | 0.00 | 81 | 1020.8 |
| 20260902132002 | 80 | 100 | 0.0 | 1.0 | 0.00 | 0.00 | 0.00 | 82 | 1020.8 |
| 20260902131504 | 79 | 103 | 0.0 | 1.0 | 0.00 | 0.00 | 0.00 | 81 | 1020.8 |
| 20260902131003 | 79 | 140 | 0.0 | 2.0 | 0.00 | 0.00 | 0.00 | 84 | 1020.8 |
| 20260902130504 | 79 | 110 | 0.0 | 2.0 | 0.00 | 0.00 | 0.00 | 84 | 1020.8 |
| 20260902130006 | 78 | 152 | 0.0 | 1.0 | 0.00 | 0.00 | 0.00 | 87 | 1020.7 |
| 20260902125506 | 77 | 152 | 0.0 | 1.0 | 0.00 | 0.00 | 0.00 | 87 | 1020.7 |
| 20260902125003 | 76 | 99 | 0.0 | 1.0 | 0.00 | 0.00 | 0.00 | 90 | 1020.8 |
| 20260902124504 | 75 | 220 | 0.0 | 0.0 | 0.00 | 0.00 | 0.00 | 92 | 1020.7 |
| 20260902124004 | 75 | 221 | 0.0 | 0.0 | 0.00 | 0.00 | 0.00 | 94 | 1020.6 |
| 20260902123504 | 74 | 221 | 0.0 | 0.0 | 0.00 | 0.00 | 0.00 | 94 | 1020.8 |
| 20260902123010 | 74 | 221 | 0.0 | 0.0 | 0.00 | 0.00 | 0.00 | 95 | 1020.8 |
| 20260902122503 | 73 | 221 | 0.0 | 0.0 | 0.00 | 0.00 | 0.00 | 95 | 1020.7 |
| 20260902122002 | 73 | 221 | 0.0 | 0.0 | 0.00 | 0.00 | 0.00 | 95 | 1020.7 |
| 20260902121509 | 73 | 221 | 0.0 | 0.0 | 0.00 | 0.00 | 0.00 | 95 | 1020.6 |
| 20260902121004 | 73 | 221 | 0.0 | 0.0 | 0.00 | 0.00 | 0.00 | 95 | 1020.5 |
| 20260902120502 | 73 | 221 | 0.0 | 0.0 | 0.00 | 0.00 | 0.00 | 96 | 1020.4 |
| 20260902120008 | 72 | 221 | 0.0 | 0.0 | 0.00 | 0.00 | 0.00 | 96 | 1020.4 |
| 20260902115502 | 72 | 221 | 0.0 | 0.0 | 0.00 | 0.00 | 0.00 | 95 | 1020.2 |
| 20260902115006 | 72 | 221 | 0.0 | 0.0 | 0.00 | 0.00 | 0.00 | 95 | 1020.1 |
| 20260902114507 | 72 | 221 | 0.0 | 0.0 | 0.00 | 0.00 | 0.00 | 95 | 1020.1 |
| 20260902114004 | 72 | 221 | 0.0 | 0.0 | 0.00 | 0.00 | 0.00 | 95 | 1020.0 |
| 20260902113502 | 72 | 221 | 0.0 | 0.0 | 0.00 | 0.00 | 0.00 | 95 | 1020.0 |
| 20260902113007 | 72 | 221 | 0.0 | 0.0 | 0.00 | 0.00 | 0.00 | 95 | 1020.0 |
| 20260902112504 | 72 | 221 | 0.0 | 0.0 | 0.00 | 0.00 | 0.00 | 95 | 1019.9 |
| 20260902112004 | 72 | 221 | 0.0 | 0.0 | 0.00 | 0.00 | 0.00 | 95 | 1020.1 |
| 20260902111503 | 72 | 221 | 0.0 | 0.0 | 0.00 | 0.00 | 0.00 | 95 | 1020.0 |
| 20260902111005 | 72 | 221 | 0.0 | 0.0 | 0.00 | 0.00 | 0.00 | 95 | 1020.0 |
| 20260902110508 | 72 | 221 | 0.0 | 0.0 | 0.00 | 0.00 | 0.00 | 95 | 1019.9 |
| 20260902110012 | 72 | 221 | 0.0 | 0.0 | 0.00 | 0.00 | 0.00 | 94 | 1019.8 |
| 20260902105502 | 72 | 221 | 0.0 | 0.0 | 0.00 | 0.00 | 0.00 | 94 | 1019.8 |
| 20260902105002 | 72 | 221 | 0.0 | 0.0 | 0.00 | 0.00 | 0.00 | 94 | 1019.7 |
| 20260902104517 | 72 | 221 | 0.0 | 0.0 | 0.00 | 0.00 | 0.00 | 94 | 1019.5 |
| 20260902104002 | 72 | 221 | 0.0 | 0.0 | 0.00 | 0.00 | 0.00 | 94 | 1019.7 |
| 20260902103503 | 72 | 221 | 0.0 | 0.0 | 0.00 | 0.00 | 0.00 | 94 | 1019.8 |
| 20260902103009 | 72 | 221 | 0.0 | 0.0 | 0.00 | 0.00 | 0.00 | 94 | 1019.7 |
| 20260902102528 | 72 | 221 | 0.0 | 0.0 | 0.00 | 0.00 | 0.00 | 94 | 1019.7 |
| 20260902102523 | 72 | 221 | 0.0 | 0.0 | 0.00 | 0.00 | 0.00 | 94 | 1019.6 |
| 20260902102521 | 72 | 221 | 0.0 | 0.0 | 0.00 | 0.00 | 0.00 | 94 | 1019.5 |
| 20260902095506 | 72 | 221 | 0.0 | 0.0 | 0.00 | 0.00 | 0.00 | 93 | 1019.3 |
| 20260902095006 | 72 | 221 | 0.0 | 0.0 | 0.00 | 0.00 | 0.00 | 93 | 1019.3 |
| 20260902094506 | 73 | 221 | 0.0 | 0.0 | 0.00 | 0.00 | 0.00 | 93 | 1019.4 |
| 20260902094004 | 73 | 221 | 0.0 | 0.0 | 0.00 | 0.00 | 0.00 | 93 | 1019.3 |
| 20260902093503 | 73 | 221 | 0.0 | 0.0 | 0.00 | 0.00 | 0.00 | 93 | 1019.3 |
| 20260902093014 | 73 | 221 | 0.0 | 0.0 | 0.00 | 0.00 | 0.00 | 93 | 1019.2 |
| 20260902092507 | 73 | 221 | 0.0 | 0.0 | 0.00 | 0.00 | 0.00 | 93 | 1019.2 |
| 20260902092451 | 73 | 221 | 0.0 | 0.0 | 0.00 | 0.00 | 0.00 | 93 | 1019.0 |
| 20260902091004 | 73 | 221 | 0.0 | 0.0 | 0.00 | 0.00 | 0.00 | 93 | 1019.0 |
| 20260902090506 | 73 | 221 | 0.0 | 0.0 | 0.00 | 0.00 | 0.00 | 93 | 1019.0 |
| 20260902090013 | 73 | 221 | 0.0 | 0.0 | 0.00 | 0.00 | 0.00 | 93 | 1019.1 |
| 20260902085505 | 73 | 221 | 0.0 | 0.0 | 0.00 | 0.00 | 0.00 | 93 | 1019.1 |
| 20260902085003 | 73 | 221 | 0.0 | 0.0 | 0.00 | 0.00 | 0.00 | 93 | 1018.9 |
| 20260902084512 | 73 | 221 | 0.0 | 0.0 | 0.00 | 0.00 | 0.00 | 93 | 1018.7 |
| 20260902084007 | 73 | 221 | 0.0 | 0.0 | 0.00 | 0.00 | 0.00 | 93 | 1018.6 |
| 20260902083504 | 73 | 221 | 0.0 | 0.0 | 0.00 | 0.00 | 0.00 | 93 | 1018.8 |
| 20260902083011 | 73 | 221 | 0.0 | 0.0 | 0.00 | 0.00 | 0.00 | 93 | 1018.8 |
| 20260902082503 | 73 | 221 | 0.0 | 0.0 | 0.00 | 0.00 | 0.00 | 93 | 1018.7 |
| 20260902082006 | 73 | 221 | 0.0 | 0.0 | 0.00 | 0.00 | 0.00 | 93 | 1018.6 |
| 20260902081506 | 73 | 221 | 0.0 | 0.0 | 0.00 | 0.00 | 0.00 | 92 | 1018.7 |
| 20260902081005 | 73 | 221 | 0.0 | 0.0 | 0.00 | 0.00 | 0.00 | 92 | 1018.5 |
| 20260902080504 | 73 | 221 | 0.0 | 0.0 | 0.00 | 0.00 | 0.00 | 92 | 1018.5 |
| 20260902080007 | 74 | 221 | 0.0 | 0.0 | 0.00 | 0.00 | 0.00 | 92 | 1018.5 |
| 20260902075503 | 74 | 221 | 0.0 | 0.0 | 0.00 | 0.00 | 0.00 | 92 | 1018.6 |
| 20260902075003 | 74 | 221 | 0.0 | 0.0 | 0.00 | 0.00 | 0.00 | 92 | 1018.5 |
| 20260902074516 | 74 | 221 | 0.0 | 0.0 | 0.00 | 0.00 | 0.00 | 92 | 1018.5 |
| 20260902074004 | 74 | 221 | 0.0 | 0.0 | 0.00 | 0.00 | 0.00 | 92 | 1018.4 |
| 20260902073503 | 74 | 221 | 0.0 | 0.0 | 0.00 | 0.00 | 0.00 | 92 | 1018.5 |
| 20260902073014 | 74 | 221 | 0.0 | 0.0 | 0.00 | 0.00 | 0.00 | 92 | 1018.5 |
| 20260902072506 | 74 | 221 | 0.0 | 0.0 | 0.00 | 0.00 | 0.00 | 91 | 1018.5 |
| 20260902072004 | 74 | 145 | 0.0 | 0.0 | 0.00 | 0.00 | 0.00 | 91 | 1018.5 |
| 20260902071512 | 75 | 144 | 0.0 | 0.0 | 0.00 | 0.00 | 0.00 | 90 | 1018.4 |
| 20260902071004 | 75 | 144 | 0.0 | 0.0 | 0.00 | 0.00 | 0.00 | 89 | 1018.5 |
| 20260902070503 | 75 | 144 | 0.0 | 0.0 | 0.00 | 0.00 | 0.00 | 89 | 1018.6 |
| 20260902070015 | 75 | 145 | 0.0 | 0.0 | 0.00 | 0.00 | 0.00 | 89 | 1018.5 |
| 20260902065508 | 75 | 144 | 0.0 | 0.0 | 0.00 | 0.00 | 0.00 | 89 | 1018.6 |
| 20260902065007 | 75 | 144 | 0.0 | 0.0 | 0.00 | 0.00 | 0.00 | 89 | 1018.6 |
| 20260902064518 | 75 | 144 | 0.0 | 0.0 | 0.00 | 0.00 | 0.00 | 89 | 1018.5 |
| 20260902064008 | 75 | 144 | 0.0 | 0.0 | 0.00 | 0.00 | 0.00 | 88 | 1018.7 |
| 20260902063506 | 75 | 144 | 0.0 | 0.0 | 0.00 | 0.00 | 0.00 | 89 | 1018.7 |
| 20260902063006 | 75 | 144 | 0.0 | 0.0 | 0.00 | 0.00 | 0.00 | 88 | 1018.7 |
| 20260902062506 | 75 | 144 | 0.0 | 0.0 | 0.00 | 0.00 | 0.00 | 87 | 1018.7 |
| 20260902062007 | 75 | 145 | 0.0 | 0.0 | 0.00 | 0.00 | 0.00 | 88 | 1018.7 |
| 20260902061516 | 75 | 144 | 0.0 | 0.0 | 0.00 | 0.00 | 0.00 | 87 | 1018.8 |
| 20260902061006 | 75 | 144 | 0.0 | 0.0 | 0.00 | 0.00 | 0.00 | 88 | 1018.9 |
| 20260902060512 | 75 | 145 | 0.0 | 0.0 | 0.00 | 0.00 | 0.00 | 88 | 1018.8 |
| 20260902060015 | 75 | 144 | 0.0 | 0.0 | 0.00 | 0.00 | 0.00 | 89 | 1018.8 |
| 20260902055511 | 75 | 144 | 0.0 | 0.0 | 0.00 | 0.00 | 0.00 | 89 | 1018.9 |
| 20260902055007 | 76 | 144 | 0.0 | 0.0 | 0.00 | 0.00 | 0.00 | 89 | 1018.9 |
| 20260902054516 | 76 | 144 | 0.0 | 0.0 | 0.00 | 0.00 | 0.00 | 89 | 1019.0 |
| 20260902054006 | 76 | 144 | 0.0 | 0.0 | 0.00 | 0.00 | 0.00 | 88 | 1019.0 |
| 20260902053504 | 76 | 144 | 0.0 | 0.0 | 0.00 | 0.00 | 0.00 | 88 | 1018.8 |
| 20260902053019 | 76 | 144 | 0.0 | 0.0 | 0.00 | 0.00 | 0.00 | 88 | 1019.1 |
| 20260902052508 | 76 | 144 | 0.0 | 0.0 | 0.00 | 0.00 | 0.00 | 88 | 1019.1 |
| 20260902052008 | 76 | 144 | 0.0 | 0.0 | 0.00 | 0.00 | 0.00 | 88 | 1019.1 |
| 20260902051513 | 76 | 145 | 0.0 | 0.0 | 0.00 | 0.00 | 0.00 | 88 | 1018.9 |
| 20260902051007 | 76 | 144 | 0.0 | 0.0 | 0.00 | 0.00 | 0.00 | 88 | 1018.8 |
| 20260902050507 | 76 | 144 | 0.0 | 0.0 | 0.00 | 0.00 | 0.00 | 88 | 1019.0 |
| 20260902050010 | 76 | 144 | 0.0 | 0.0 | 0.00 | 0.00 | 0.00 | 87 | 1019.1 |
| 20260902045510 | 76 | 145 | 0.0 | 0.0 | 0.00 | 0.00 | 0.00 | 87 | 1019.0 |
| 20260902045006 | 76 | 144 | 0.0 | 0.0 | 0.00 | 0.00 | 0.00 | 86 | 1018.9 |
| 20260902044516 | 76 | 145 | 0.0 | 0.0 | 0.00 | 0.00 | 0.00 | 87 | 1019.0 |
| 20260902044008 | 76 | 144 | 0.0 | 0.0 | 0.00 | 0.00 | 0.00 | 87 | 1019.0 |
| 20260902043510 | 77 | 144 | 0.0 | 0.0 | 0.00 | 0.00 | 0.00 | 87 | 1019.0 |
| 20260902043020 | 77 | 144 | 0.0 | 0.0 | 0.00 | 0.00 | 0.00 | 87 | 1019.2 |
| 20260902042504 | 77 | 144 | 0.0 | 0.0 | 0.00 | 0.00 | 0.00 | 87 | 1019.2 |
| 20260902042008 | 77 | 145 | 0.0 | 0.0 | 0.00 | 0.00 | 0.00 | 86 | 1019.2 |
| 20260902041537 | 77 | 144 | 0.0 | 0.0 | 0.00 | 0.00 | 0.00 | 86 | 1019.2 |